{"data":{"norad_id":62228,"intl_designator":"2024-231L","name":"STARLINK-11476 [DTC]","alt_names":[],"object_type":"PAYLOAD","status":"ACTIVE","operator":null,"country":"US","launch_date":"2024-12-05","launch_site_code":"AFWTR","launch_vehicle":null,"mission":null,"orbit_class":"UNKNOWN","rcs_meters":null,"size_class":null,"mass_kg":null,"dimensions":null,"purposes":["comms"],"wikipedia_slug":null,"has_3d_model":false,"image_url":null,"decayed_at":null,"tle_current":{"epoch":"2026-05-25T04:55:49.370592Z","epoch_age_seconds":53465,"freshness":"FRESH","line1":"1 62228U 24231L   26145.20543253  .00153878  00000+0  12488-2 0  9990","line2":"2 62228  53.1566  83.7393 0001196  47.3793 312.7325 15.69763526 85445","mean_motion":15.69763526,"eccentricity":0.0001196,"inclination_deg":53.1566,"raan_deg":83.7393,"arg_perigee_deg":47.3793,"mean_anomaly_deg":312.7325,"bstar":0.0012488,"rev_number":8544,"period_min":91.733562167121,"perigee_km":358.767753663,"apogee_km":360.37941403466,"semimajor_km":6737.7105838488,"source":"CELESTRAK","updated_at":"2026-05-25T13:38:19.615115Z"}}}